UAL2275 KSTL-KEWR

Flight info

Callsign UAL2275
Flight time 1h 54m
Altitude 37000
Route JHART7 RINTE DORET J584 SLT FQM3
Aircraft A320/M-VGDW/C

Departure

Time 2026-04-26 16:28
Airport St. Louis Lambert International Airport (KSTL)

Arrival

Time 2026-04-26 18:22
Airport Newark Liberty International Airport (KEWR)
Time Latitude Longitude Altitude Speed Heading
2026-04-26 16:10 38.74096 -90.36088 568 ft 0 kts 32°
2026-04-26 16:16 38.74086 -90.36096 568 ft 4 kts 32°
2026-04-26 16:16 38.74064 -90.36114 574 ft 3 kts 32°
2026-04-26 16:17 38.74050 -90.36134 574 ft 4 kts 106°
2026-04-26 16:17 38.74063 -90.36163 568 ft 4 kts 125°
2026-04-26 16:17 38.74074 -90.36186 568 ft 4 kts 124°
2026-04-26 16:17 38.74087 -90.36210 568 ft 1 kts 122°
2026-04-26 16:20 38.74065 -90.36166 572 ft 5 kts 123°
2026-04-26 16:20 38.74041 -90.36117 572 ft 7 kts 122°
2026-04-26 16:21 38.74010 -90.36055 569 ft 9 kts 122°
2026-04-26 16:21 38.73972 -90.35976 572 ft 10 kts 122°
2026-04-26 16:21 38.73976 -90.35903 570 ft 10 kts 39°
2026-04-26 16:21 38.74035 -90.35856 572 ft 10 kts 32°
2026-04-26 16:22 38.74095 -90.35808 573 ft 11 kts 32°
2026-04-26 16:22 38.74152 -90.35826 574 ft 10 kts 306°
2026-04-26 16:22 38.74194 -90.35913 576 ft 14 kts 302°
2026-04-26 16:22 38.74252 -90.36029 571 ft 17 kts 302°
2026-04-26 16:23 38.74322 -90.36172 568 ft 21 kts 302°
2026-04-26 16:23 38.74413 -90.36355 567 ft 27 kts 302°
2026-04-26 16:23 38.74513 -90.36558 558 ft 28 kts 302°
2026-04-26 16:23 38.74604 -90.36745 561 ft 18 kts 302°
2026-04-26 16:24 38.74659 -90.36862 556 ft 16 kts 302°
2026-04-26 16:24 38.74722 -90.36990 555 ft 18 kts 302°
2026-04-26 16:24 38.74791 -90.37131 559 ft 20 kts 302°
2026-04-26 16:24 38.74864 -90.37280 559 ft 15 kts 297°
2026-04-26 16:25 38.74888 -90.37375 564 ft 12 kts 300°
2026-04-26 16:25 38.74938 -90.37478 562 ft 16 kts 302°
2026-04-26 16:25 38.75004 -90.37612 555 ft 20 kts 303°
2026-04-26 16:25 38.75085 -90.37777 553 ft 24 kts 302°
2026-04-26 16:26 38.75174 -90.37957 550 ft 17 kts 302°
2026-04-26 16:26 38.75211 -90.38014 548 ft 11 kts 329°
2026-04-26 16:26 38.75272 -90.37996 547 ft 5 kts 33°
2026-04-26 16:26 38.75312 -90.37965 547 ft 8 kts 31°
2026-04-26 16:27 38.75369 -90.37917 549 ft 11 kts 37°
2026-04-26 16:27 38.75377 -90.37877 545 ft 3 kts 129°
2026-04-26 16:27 38.75352 -90.37830 546 ft 14 kts 124°
2026-04-26 16:27 38.75158 -90.37441 558 ft 87 kts 122°
2026-04-26 16:28 38.74732 -90.36579 559 ft 141 kts 122°
2026-04-26 16:28 38.74133 -90.35373 758 ft 168 kts 123°
2026-04-26 16:28 38.73616 -90.34057 1533 ft 166 kts 106°
2026-04-26 16:28 38.73414 -90.32623 2299 ft 167 kts 100°
2026-04-26 16:29 38.73251 -90.31056 2835 ft 185 kts 99°
2026-04-26 16:29 38.73075 -90.29321 3269 ft 208 kts 99°
2026-04-26 16:29 38.72877 -90.27408 3746 ft 228 kts 98°
2026-04-26 16:29 38.72701 -90.25284 4302 ft 252 kts 94°
2026-04-26 16:30 38.72651 -90.22991 5164 ft 262 kts 91°
2026-04-26 16:30 38.72645 -90.20626 6127 ft 268 kts 91°
2026-04-26 16:30 38.72740 -90.18218 7015 ft 274 kts 85°
2026-04-26 16:30 38.72970 -90.15769 7933 ft 279 kts 83°
2026-04-26 16:31 38.73235 -90.13292 8860 ft 283 kts 83°
2026-04-26 16:31 38.73507 -90.10776 9725 ft 287 kts 83°
2026-04-26 16:31 38.73780 -90.08199 10363 ft 301 kts 83°
2026-04-26 16:31 38.74067 -90.05431 10637 ft 325 kts 83°
2026-04-26 16:32 38.74365 -90.02460 10867 ft 348 kts 83°
2026-04-26 16:32 38.74568 -90.00381 11033 ft 361 kts 83°
2026-04-26 16:32 38.74989 -89.96038 11912 ft 371 kts 83°
2026-04-26 16:32 38.75307 -89.92741 12624 ft 376 kts 84°
2026-04-26 16:33 38.75630 -89.89395 13307 ft 380 kts 83°
2026-04-26 16:33 38.75957 -89.86017 13957 ft 385 kts 83°
2026-04-26 16:33 38.76284 -89.82588 14595 ft 389 kts 83°
2026-04-26 16:33 38.76614 -89.79120 15201 ft 394 kts 83°
2026-04-26 16:34 38.76947 -89.75621 15808 ft 399 kts 83°
2026-04-26 16:34 38.77285 -89.72068 16419 ft 403 kts 83°
2026-04-26 16:34 38.77623 -89.68480 17015 ft 407 kts 83°
2026-04-26 16:34 38.77960 -89.64902 17603 ft 412 kts 83°
2026-04-26 16:35 38.78303 -89.61241 18212 ft 416 kts 83°
2026-04-26 16:35 38.78645 -89.57541 18793 ft 420 kts 83°
2026-04-26 16:35 38.78993 -89.53750 19367 ft 425 kts 83°
2026-04-26 16:35 38.79350 -89.49965 19929 ft 430 kts 82°
2026-04-26 16:36 38.79773 -89.46211 20468 ft 434 kts 81°
2026-04-26 16:36 38.80264 -89.42378 20966 ft 438 kts 79°
2026-04-26 16:36 38.80789 -89.38517 21427 ft 442 kts 79°
2026-04-26 16:36 38.81325 -89.34621 21886 ft 445 kts 79°
2026-04-26 16:37 38.81857 -89.30694 22343 ft 449 kts 79°
2026-04-26 16:37 38.82378 -89.26735 22762 ft 452 kts 79°
2026-04-26 16:37 38.82890 -89.22737 23173 ft 456 kts 79°
2026-04-26 16:37 38.83231 -89.20020 23449 ft 458 kts 79°
2026-04-26 16:38 38.83895 -89.14659 23960 ft 461 kts 79°
2026-04-26 16:38 38.84401 -89.10573 24326 ft 465 kts 79°
2026-04-26 16:38 38.84914 -89.06465 24705 ft 467 kts 79°
2026-04-26 16:38 38.85432 -89.02335 25075 ft 470 kts 79°
2026-04-26 16:39 38.85436 -89.02301 25078 ft 470 kts 79°
2026-04-26 16:39 38.85867 -88.98829 25384 ft 472 kts 79°
2026-04-26 16:39 38.86377 -88.94683 25745 ft 475 kts 79°
2026-04-26 16:39 38.86900 -88.90457 26103 ft 477 kts 78°
2026-04-26 16:40 38.87424 -88.86245 26449 ft 480 kts 78°
2026-04-26 16:40 38.87951 -88.82010 26777 ft 482 kts 78°
2026-04-26 16:40 38.88474 -88.77745 27105 ft 485 kts 78°
2026-04-26 16:40 38.88990 -88.73463 27421 ft 487 kts 78°
2026-04-26 16:41 38.89508 -88.69163 27727 ft 488 kts 78°
2026-04-26 16:41 38.90033 -88.64844 28018 ft 491 kts 78°
2026-04-26 16:41 38.90557 -88.60517 28379 ft 491 kts 78°
2026-04-26 16:41 38.91077 -88.56195 28790 ft 489 kts 78°
2026-04-26 16:42 38.91595 -88.51877 29182 ft 489 kts 78°
2026-04-26 16:42 38.92271 -88.47615 29558 ft 485 kts 70°
2026-04-26 16:42 38.93342 -88.43537 29953 ft 481 kts 65°
2026-04-26 16:42 38.94484 -88.39503 30365 ft 480 kts 65°
2026-04-26 16:43 38.95621 -88.35472 30772 ft 479 kts 65°
2026-04-26 16:43 38.96372 -88.32804 31039 ft 478 kts 65°
2026-04-26 16:43 38.97497 -88.28788 31417 ft 478 kts 65°
2026-04-26 16:43 38.98619 -88.24771 31810 ft 477 kts 65°
2026-04-26 16:44 38.99737 -88.20763 32199 ft 476 kts 65°
2026-04-26 16:44 39.00853 -88.16758 32572 ft 476 kts 65°
2026-04-26 16:44 39.01967 -88.12759 32948 ft 475 kts 65°
2026-04-26 16:44 39.03077 -88.08765 33331 ft 474 kts 65°
2026-04-26 16:45 39.04185 -88.04780 33712 ft 473 kts 65°
2026-04-26 16:45 39.05293 -88.00795 34078 ft 472 kts 65°
2026-04-26 16:45 39.06395 -87.96821 34454 ft 471 kts 65°
2026-04-26 16:45 39.07494 -87.92848 34854 ft 470 kts 65°
2026-04-26 16:46 39.08587 -87.88888 35195 ft 470 kts 65°
2026-04-26 16:46 39.09681 -87.84918 35491 ft 471 kts 65°
2026-04-26 16:46 39.10773 -87.80944 35787 ft 472 kts 65°
2026-04-26 16:46 39.11865 -87.76958 36072 ft 472 kts 66°
2026-04-26 16:47 39.12957 -87.72965 36343 ft 474 kts 66°
2026-04-26 16:47 39.14054 -87.68958 36594 ft 475 kts 65°
2026-04-26 16:47 39.15148 -87.64952 36875 ft 474 kts 65°
2026-04-26 16:47 39.16242 -87.60944 37059 ft 474 kts 65°
2026-04-26 16:48 39.18431 -87.52898 37093 ft 476 kts 65°
2026-04-26 16:48 39.20621 -87.44850 37090 ft 476 kts 66°
2026-04-26 16:49 39.22805 -87.36799 37103 ft 476 kts 66°
2026-04-26 16:49 39.24976 -87.28729 37102 ft 475 kts 66°
2026-04-26 16:50 39.27143 -87.20673 37104 ft 475 kts 66°
2026-04-26 16:50 39.29307 -87.12617 37101 ft 475 kts 66°
2026-04-26 16:51 39.31467 -87.04564 37105 ft 475 kts 66°
2026-04-26 16:51 39.33623 -86.96493 37112 ft 475 kts 66°
2026-04-26 16:52 39.35401 -86.89779 37121 ft 475 kts 66°
2026-04-26 16:52 39.37891 -86.80337 37121 ft 475 kts 66°
2026-04-26 16:53 39.40025 -86.72254 37129 ft 475 kts 66°
2026-04-26 16:53 39.42136 -86.64224 37133 ft 475 kts 67°
2026-04-26 16:54 39.44268 -86.56091 37139 ft 474 kts 67°
2026-04-26 16:54 39.46381 -86.48016 37143 ft 474 kts 67°
2026-04-26 16:55 39.48490 -86.39942 37142 ft 473 kts 67°
2026-04-26 16:55 39.50582 -86.31871 37150 ft 473 kts 67°
2026-04-26 16:56 39.53710 -86.19770 37150 ft 472 kts 67°
2026-04-26 16:57 39.55785 -86.11707 37157 ft 471 kts 68°
2026-04-26 16:57 39.58881 -85.99621 37158 ft 471 kts 68°
2026-04-26 16:58 39.60591 -85.92928 37164 ft 471 kts 68°
2026-04-26 16:59 39.64285 -85.79707 37158 ft 465 kts 59°
2026-04-26 17:00 39.69982 -85.64639 37150 ft 465 kts 60°
2026-04-26 17:00 39.74240 -85.53320 37150 ft 465 kts 59°
2026-04-26 17:01 39.77076 -85.45753 37155 ft 465 kts 60°
2026-04-26 17:01 39.79913 -85.38173 37161 ft 465 kts 60°
2026-04-26 17:02 39.82744 -85.30603 37164 ft 465 kts 60°
2026-04-26 17:02 39.85568 -85.23023 37166 ft 465 kts 60°
2026-04-26 17:03 39.88383 -85.15436 37158 ft 465 kts 60°
2026-04-26 17:03 39.91191 -85.07842 37164 ft 466 kts 60°
2026-04-26 17:04 39.93997 -85.00228 37171 ft 466 kts 60°
2026-04-26 17:04 39.96783 -84.92645 37172 ft 466 kts 60°
2026-04-26 17:05 39.99585 -84.84995 37176 ft 466 kts 60°
2026-04-26 17:05 40.02381 -84.77377 37175 ft 465 kts 60°
2026-04-26 17:06 40.05165 -84.69753 37184 ft 465 kts 61°
2026-04-26 17:06 40.07939 -84.62126 37176 ft 465 kts 61°
2026-04-26 17:07 40.10717 -84.54497 37186 ft 465 kts 61°
2026-04-26 17:07 40.13484 -84.46910 37185 ft 465 kts 61°
2026-04-26 17:08 40.16251 -84.39261 37189 ft 465 kts 61°
2026-04-26 17:08 40.18996 -84.31611 37187 ft 465 kts 61°
2026-04-26 17:09 40.21277 -84.25245 37186 ft 465 kts 61°
2026-04-26 17:09 40.24494 -84.16298 37193 ft 465 kts 62°
2026-04-26 17:10 40.27242 -84.08632 37198 ft 465 kts 61°
2026-04-26 17:10 40.30239 -84.01174 37198 ft 461 kts 55°
2026-04-26 17:11 40.33558 -83.93997 37198 ft 461 kts 55°
2026-04-26 17:11 40.36870 -83.86784 37197 ft 461 kts 55°
2026-04-26 17:12 40.41842 -83.75968 37200 ft 462 kts 55°
2026-04-26 17:13 40.46811 -83.65129 37204 ft 462 kts 55°
2026-04-26 17:14 40.51769 -83.54267 37201 ft 462 kts 55°
2026-04-26 17:14 40.56716 -83.43382 37198 ft 462 kts 56°
2026-04-26 17:15 40.61651 -83.32484 37196 ft 462 kts 56°
2026-04-26 17:16 40.64940 -83.25207 37198 ft 463 kts 56°
2026-04-26 17:16 40.68229 -83.17911 37202 ft 463 kts 56°
2026-04-26 17:17 40.71510 -83.10611 37206 ft 463 kts 56°
2026-04-26 17:17 40.74791 -83.03296 37207 ft 464 kts 56°
2026-04-26 17:18 40.78047 -82.96020 37214 ft 464 kts 56°
2026-04-26 17:18 40.81322 -82.88688 37212 ft 463 kts 56°
2026-04-26 17:19 40.86216 -82.77698 37212 ft 463 kts 56°
2026-04-26 17:19 40.89476 -82.70359 37209 ft 463 kts 56°
2026-04-26 17:20 40.91655 -82.65437 37210 ft 463 kts 56°
2026-04-26 17:20 40.95977 -82.55639 37205 ft 463 kts 56°
2026-04-26 17:21 40.99229 -82.48273 37205 ft 463 kts 56°
2026-04-26 17:21 41.02469 -82.40914 37205 ft 463 kts 56°
2026-04-26 17:22 41.05696 -82.33533 37209 ft 463 kts 56°
2026-04-26 17:22 41.08923 -82.26147 37210 ft 463 kts 56°
2026-04-26 17:23 41.12152 -82.18761 37211 ft 463 kts 56°
2026-04-26 17:23 41.15376 -82.11364 37213 ft 463 kts 57°
2026-04-26 17:24 41.18586 -82.03967 37212 ft 462 kts 57°
2026-04-26 17:24 41.21270 -81.97767 37212 ft 462 kts 57°
2026-04-26 17:25 41.24449 -81.90401 37211 ft 462 kts 57°
2026-04-26 17:25 41.27664 -81.82953 37211 ft 462 kts 57°
2026-04-26 17:26 41.30849 -81.75549 37207 ft 461 kts 57°
2026-04-26 17:26 41.34033 -81.68136 37205 ft 461 kts 57°
2026-04-26 17:27 41.36337 -81.60233 37203 ft 469 kts 81°
2026-04-26 17:27 41.36881 -81.51508 37205 ft 470 kts 83°
2026-04-26 17:28 41.37344 -81.42878 37204 ft 471 kts 83°
2026-04-26 17:28 41.37810 -81.34182 37204 ft 471 kts 83°
2026-04-26 17:29 41.38205 -81.26899 37205 ft 471 kts 83°
2026-04-26 17:29 41.38754 -81.16792 37208 ft 471 kts 83°
2026-04-26 17:30 41.39216 -81.08083 37206 ft 471 kts 83°
2026-04-26 17:30 41.39667 -80.99335 37206 ft 471 kts 83°
2026-04-26 17:31 41.40111 -80.90687 37203 ft 471 kts 83°
2026-04-26 17:31 41.40555 -80.81982 37205 ft 471 kts 84°
2026-04-26 17:32 41.40984 -80.73276 37206 ft 471 kts 84°
2026-04-26 17:32 41.41404 -80.64508 37204 ft 471 kts 84°
2026-04-26 17:33 41.41826 -80.55805 37204 ft 471 kts 84°
2026-04-26 17:34 41.42447 -80.42801 37206 ft 471 kts 84°
2026-04-26 17:34 41.42842 -80.34093 37206 ft 471 kts 84°
2026-04-26 17:35 41.43237 -80.25385 37204 ft 471 kts 84°
2026-04-26 17:35 41.43631 -80.16675 37205 ft 470 kts 84°
2026-04-26 17:36 41.44014 -80.07972 37203 ft 470 kts 84°
2026-04-26 17:36 41.44385 -79.99272 37203 ft 470 kts 84°
2026-04-26 17:37 41.44755 -79.90577 37202 ft 470 kts 84°
2026-04-26 17:37 41.45120 -79.81887 37200 ft 470 kts 84°
2026-04-26 17:38 41.45653 -79.68828 37198 ft 471 kts 84°
2026-04-26 17:38 41.46001 -79.60114 37199 ft 471 kts 84°
2026-04-26 17:39 41.46342 -79.51390 37200 ft 471 kts 84°
2026-04-26 17:39 41.46681 -79.42662 37204 ft 471 kts 84°
2026-04-26 17:40 41.46955 -79.35343 37203 ft 471 kts 85°
2026-04-26 17:40 41.47330 -79.25197 37200 ft 472 kts 85°
2026-04-26 17:41 41.47642 -79.16455 37199 ft 472 kts 85°
2026-04-26 17:41 41.47947 -79.07705 37201 ft 472 kts 85°
2026-04-26 17:42 41.48249 -78.98945 37206 ft 473 kts 85°
2026-04-26 17:42 41.48548 -78.90173 37206 ft 474 kts 85°
2026-04-26 17:43 41.48837 -78.81392 37204 ft 474 kts 85°
2026-04-26 17:43 41.49118 -78.72608 37204 ft 474 kts 85°
2026-04-26 17:44 41.49400 -78.63821 37207 ft 475 kts 86°
2026-04-26 17:44 41.49677 -78.55015 37210 ft 475 kts 86°
2026-04-26 17:45 41.49935 -78.46203 37212 ft 475 kts 86°
2026-04-26 17:45 41.50193 -78.37382 37214 ft 476 kts 86°
2026-04-26 17:46 41.50438 -78.28554 37217 ft 476 kts 86°
2026-04-26 17:46 41.50681 -78.19720 37218 ft 476 kts 86°
2026-04-26 17:47 41.50876 -78.12421 36734 ft 473 kts 86°
2026-04-26 17:47 41.51030 -78.06546 35704 ft 474 kts 85°
2026-04-26 17:47 41.51142 -78.02151 34478 ft 478 kts 85°
2026-04-26 17:48 41.51157 -77.97692 33734 ft 483 kts 91°
2026-04-26 17:48 41.50729 -77.93224 33426 ft 489 kts 98°
2026-04-26 17:48 41.50096 -77.88765 33209 ft 491 kts 98°
2026-04-26 17:48 41.49470 -77.84287 33205 ft 492 kts 98°
2026-04-26 17:49 41.48221 -77.75308 33201 ft 492 kts 98°
2026-04-26 17:49 41.46948 -77.66324 33202 ft 492 kts 98°
2026-04-26 17:50 41.45656 -77.57360 33202 ft 492 kts 98°
2026-04-26 17:50 41.44360 -77.48440 33203 ft 493 kts 98°
2026-04-26 17:51 41.43057 -77.39482 33201 ft 493 kts 99°
2026-04-26 17:51 41.41749 -77.30507 33199 ft 493 kts 99°
2026-04-26 17:52 41.40441 -77.21547 32409 ft 493 kts 99°
2026-04-26 17:52 41.39782 -77.17051 31262 ft 497 kts 99°
2026-04-26 17:52 41.39111 -77.12511 30200 ft 499 kts 99°
2026-04-26 17:53 41.38440 -77.08005 29278 ft 496 kts 98°
2026-04-26 17:53 41.37769 -77.03509 28245 ft 495 kts 98°
2026-04-26 17:53 41.37100 -76.99010 27257 ft 494 kts 98°
2026-04-26 17:54 41.35770 -76.90126 25566 ft 484 kts 98°
2026-04-26 17:54 41.35107 -76.85748 24765 ft 479 kts 98°
2026-04-26 17:54 41.34453 -76.81440 24213 ft 469 kts 98°
2026-04-26 17:54 41.33754 -76.77288 24084 ft 453 kts 103°
2026-04-26 17:55 41.32749 -76.73366 23928 ft 442 kts 107°
2026-04-26 17:55 41.31720 -76.69516 23164 ft 444 kts 106°
2026-04-26 17:55 41.30693 -76.65665 22853 ft 443 kts 106°
2026-04-26 17:55 41.29666 -76.61804 22614 ft 443 kts 106°
2026-04-26 17:56 41.28638 -76.57942 22429 ft 442 kts 107°
2026-04-26 17:56 41.26586 -76.50275 21805 ft 438 kts 107°
2026-04-26 17:57 41.24542 -76.42690 21194 ft 434 kts 107°
2026-04-26 17:57 41.23524 -76.38916 20892 ft 432 kts 107°
2026-04-26 17:57 41.22511 -76.35162 20590 ft 431 kts 107°
2026-04-26 17:57 41.21501 -76.31433 20287 ft 429 kts 107°
2026-04-26 17:58 41.18481 -76.20341 19394 ft 423 kts 107°
2026-04-26 17:59 41.16487 -76.13039 18804 ft 419 kts 107°
2026-04-26 17:59 41.15496 -76.09415 18515 ft 417 kts 107°
2026-04-26 17:59 41.14509 -76.05801 18095 ft 416 kts 107°
2026-04-26 17:59 41.13530 -76.02214 17730 ft 411 kts 107°
2026-04-26 18:00 41.12557 -75.98653 17442 ft 410 kts 107°
2026-04-26 18:00 41.11585 -75.95110 17128 ft 407 kts 107°
2026-04-26 18:00 41.10618 -75.91597 16831 ft 405 kts 107°
2026-04-26 18:00 41.09654 -75.88095 16528 ft 403 kts 107°
2026-04-26 18:01 41.08695 -75.84618 16229 ft 401 kts 107°
2026-04-26 18:01 41.07740 -75.81167 15938 ft 398 kts 107°
2026-04-26 18:01 41.06786 -75.77737 15644 ft 395 kts 107°
2026-04-26 18:01 41.05840 -75.74329 15354 ft 393 kts 107°
2026-04-26 18:02 41.04908 -75.70975 15061 ft 391 kts 107°
2026-04-26 18:02 41.04594 -75.69840 14960 ft 390 kts 107°
2026-04-26 18:02 41.03043 -75.64262 14469 ft 386 kts 107°
2026-04-26 18:02 41.02112 -75.60930 14191 ft 384 kts 107°
2026-04-26 18:03 41.01188 -75.57630 13911 ft 382 kts 107°
2026-04-26 18:03 41.00270 -75.54335 13621 ft 380 kts 107°
2026-04-26 18:03 40.99361 -75.51065 13338 ft 377 kts 107°
2026-04-26 18:03 40.98455 -75.47814 13060 ft 375 kts 107°
2026-04-26 18:04 40.97553 -75.44586 12784 ft 373 kts 107°
2026-04-26 18:04 40.96651 -75.41377 12508 ft 371 kts 107°
2026-04-26 18:04 40.95754 -75.38187 12231 ft 369 kts 108°
2026-04-26 18:05 40.93978 -75.31870 11684 ft 364 kts 108°
2026-04-26 18:05 40.93100 -75.28749 11418 ft 361 kts 108°
2026-04-26 18:05 40.92509 -75.26655 11241 ft 360 kts 108°
2026-04-26 18:05 40.91639 -75.23569 10980 ft 357 kts 108°
2026-04-26 18:06 40.90776 -75.20512 10738 ft 350 kts 108°
2026-04-26 18:06 40.89949 -75.17617 10608 ft 332 kts 108°
2026-04-26 18:06 40.89144 -75.14787 10480 ft 317 kts 108°
2026-04-26 18:06 40.88391 -75.12119 10361 ft 304 kts 108°
2026-04-26 18:07 40.87667 -75.09568 10148 ft 298 kts 108°
2026-04-26 18:07 40.86948 -75.07020 9883 ft 295 kts 108°
2026-04-26 18:07 40.86236 -75.04500 9705 ft 289 kts 108°
2026-04-26 18:07 40.85762 -75.02826 9609 ft 288 kts 108°
2026-04-26 18:08 40.84833 -74.99558 9476 ft 287 kts 108°
2026-04-26 18:08 40.84137 -74.97100 9287 ft 285 kts 108°
2026-04-26 18:08 40.83451 -74.94652 9072 ft 284 kts 108°
2026-04-26 18:08 40.82744 -74.92234 8854 ft 282 kts 114°
2026-04-26 18:09 40.81599 -74.90140 8656 ft 283 kts 128°
2026-04-26 18:09 40.80317 -74.88171 8436 ft 282 kts 128°
2026-04-26 18:09 40.79033 -74.86218 8222 ft 282 kts 128°
2026-04-26 18:09 40.77749 -74.84274 8011 ft 281 kts 128°
2026-04-26 18:10 40.76463 -74.82335 7805 ft 281 kts 128°
2026-04-26 18:10 40.75183 -74.80396 7594 ft 278 kts 128°
2026-04-26 18:10 40.73917 -74.78472 7381 ft 277 kts 128°
2026-04-26 18:10 40.72655 -74.76554 7175 ft 276 kts 128°
2026-04-26 18:11 40.71399 -74.74649 6966 ft 275 kts 128°
2026-04-26 18:11 40.70147 -74.72748 6759 ft 274 kts 128°
2026-04-26 18:11 40.68900 -74.70861 6558 ft 273 kts 128°
2026-04-26 18:11 40.67652 -74.68970 6352 ft 271 kts 128°
2026-04-26 18:12 40.66418 -74.67102 6148 ft 270 kts 128°
2026-04-26 18:12 40.65183 -74.65235 5945 ft 270 kts 128°
2026-04-26 18:12 40.63951 -74.63376 5747 ft 269 kts 128°
2026-04-26 18:12 40.62723 -74.61523 5545 ft 268 kts 128°
2026-04-26 18:13 40.61503 -74.59679 5351 ft 267 kts 128°
2026-04-26 18:13 40.60289 -74.57843 5149 ft 266 kts 128°
2026-04-26 18:13 40.59078 -74.56018 4945 ft 264 kts 128°
2026-04-26 18:13 40.58276 -74.54811 4814 ft 263 kts 128°
2026-04-26 18:14 40.56667 -74.52382 4565 ft 262 kts 127°
2026-04-26 18:14 40.55473 -74.50578 4367 ft 260 kts 127°
2026-04-26 18:14 40.54283 -74.48789 4170 ft 260 kts 127°
2026-04-26 18:14 40.53095 -74.47004 3976 ft 259 kts 127°
2026-04-26 18:15 40.51916 -74.45230 3794 ft 257 kts 127°
2026-04-26 18:15 40.50739 -74.43458 3611 ft 256 kts 127°
2026-04-26 18:15 40.49688 -74.41644 3513 ft 241 kts 114°
2026-04-26 18:15 40.49192 -74.39669 3412 ft 216 kts 93°
2026-04-26 18:16 40.49213 -74.37813 3327 ft 194 kts 77°
2026-04-26 18:16 40.49964 -74.34495 3169 ft 197 kts 70°
2026-04-26 18:16 40.50373 -74.32759 3077 ft 199 kts 71°
2026-04-26 18:17 40.50781 -74.31024 2987 ft 199 kts 71°
2026-04-26 18:17 40.51189 -74.29294 2996 ft 199 kts 70°
2026-04-26 18:17 40.51851 -74.27728 3021 ft 197 kts 44°
2026-04-26 18:17 40.53019 -74.26790 3017 ft 197 kts 28°
2026-04-26 18:18 40.54225 -74.26011 2912 ft 190 kts 28°
2026-04-26 18:18 40.55406 -74.25260 2709 ft 185 kts 28°
2026-04-26 18:18 40.56524 -74.24553 2501 ft 171 kts 28°
2026-04-26 18:18 40.57552 -74.23901 2269 ft 156 kts 29°
2026-04-26 18:19 40.58463 -74.23326 2075 ft 137 kts 30°
2026-04-26 18:19 40.59297 -74.22797 1898 ft 131 kts 30°
2026-04-26 18:19 40.60114 -74.22278 1732 ft 130 kts 30°
2026-04-26 18:19 40.60931 -74.21759 1565 ft 130 kts 30°
2026-04-26 18:20 40.61748 -74.21241 1391 ft 131 kts 30°
2026-04-26 18:20 40.62571 -74.20718 1221 ft 132 kts 30°
2026-04-26 18:20 40.63401 -74.20191 1044 ft 133 kts 30°
2026-04-26 18:20 40.63955 -74.19840 935 ft 133 kts 30°
2026-04-26 18:21 40.65066 -74.19135 704 ft 130 kts 27°
2026-04-26 18:21 40.65876 -74.18621 532 ft 128 kts 27°
2026-04-26 18:21 40.66674 -74.18114 362 ft 128 kts 28°
2026-04-26 18:21 40.67474 -74.17605 202 ft 128 kts 27°
2026-04-26 18:22 40.68275 -74.17099 39 ft 128 kts 26°
2026-04-26 18:22 40.68966 -74.16657 22 ft 78 kts 26°
2026-04-26 18:22 40.69227 -74.16491 25 ft 26 kts 23°
2026-04-26 18:22 40.69391 -74.16449 25 ft 17 kts 351°
2026-04-26 18:23 40.69518 -74.16461 23 ft 16 kts 356°
2026-04-26 18:23 40.69600 -74.16492 25 ft 13 kts 306°
2026-04-26 18:23 40.69644 -74.16612 22 ft 16 kts 295°
2026-04-26 18:23 40.69683 -74.16719 22 ft 8 kts 289°
2026-04-26 18:24 40.69640 -74.16771 22 ft 11 kts 201°
2026-04-26 18:24 40.69563 -74.16819 22 ft 14 kts 205°
2026-04-26 18:24 40.69463 -74.16881 23 ft 18 kts 205°
2026-04-26 18:24 40.69339 -74.16957 22 ft 22 kts 206°
2026-04-26 18:25 40.69246 -74.17019 23 ft 13 kts 208°
2026-04-26 18:25 40.69155 -74.17078 23 ft 16 kts 205°
2026-04-26 18:25 40.69052 -74.17145 22 ft 14 kts 206°
2026-04-26 18:25 40.68950 -74.17208 25 ft 18 kts 205°
2026-04-26 18:26 40.68828 -74.17285 24 ft 20 kts 205°
2026-04-26 18:26 40.68697 -74.17370 23 ft 19 kts 205°
2026-04-26 18:26 40.68574 -74.17447 23 ft 22 kts 206°
2026-04-26 18:26 40.68427 -74.17541 23 ft 24 kts 206°
2026-04-26 18:27 40.68291 -74.17627 22 ft 18 kts 206°
2026-04-26 18:27 40.68180 -74.17699 24 ft 14 kts 206°
2026-04-26 18:27 40.68152 -74.17765 22 ft 10 kts 285°
2026-04-26 18:27 40.68186 -74.17861 22 ft 13 kts 295°
2026-04-26 18:28 40.68225 -74.17971 22 ft 9 kts 294°
2026-04-26 18:28 40.68235 -74.18054 24 ft 10 kts 275°
2026-04-26 18:28 40.68238 -74.18146 22 ft 9 kts 261°
2026-04-26 18:28 40.68234 -74.18234 24 ft 10 kts 274°
2026-04-26 18:29 40.68240 -74.18336 22 ft 12 kts 275°
2026-04-26 18:29 40.68244 -74.18394 25 ft 4 kts 275°
2026-04-26 18:29 40.68264 -74.18414 22 ft 5 kts 352°
2026-04-26 18:29 40.68288 -74.18412 22 ft 3 kts
2026-04-26 18:30 40.68303 -74.18411 22 ft 0 kts